| time (UTC) | temp F | wind direction | speed MPH | gust MPH | rain 1hr in | rain 24hr in | rain mn in | humidity % | barometer mb |
| 20260508211556 | 0 | 197 | 3.0 | 7.0 | 0.00 | 0.00 | 0.00 | 1009.4 | |
| 20260508210053 | 0 | 197 | 3.0 | 6.0 | 0.00 | 0.00 | 0.00 | 1009.4 | |
| 20260508210020 | 0 | 197 | 3.0 | 6.0 | 0.00 | 0.00 | 0.00 | 1009.4 | |
| 20260508204605 | 0 | 197 | 4.0 | 6.0 | 0.00 | 0.00 | 0.00 | 1009.3 | |
| 20260508203056 | 0 | 197 | 4.0 | 8.0 | 0.00 | 0.00 | 0.00 | 1009.1 | |
| 20260508201555 | 0 | 197 | 4.0 | 7.0 | 0.00 | 0.00 | 0.00 | 1009.1 | |
| 20260508200018 | 0 | 198 | 4.0 | 7.0 | 0.00 | 0.00 | 0.00 | 1009.1 | |
| 20260508194515 | 0 | 198 | 3.0 | 6.0 | 0.00 | 0.00 | 0.00 | 1008.8 | |
| 20260508193016 | 0 | 197 | 4.0 | 7.0 | 0.00 | 0.00 | 0.00 | 1008.7 | |
| 20260508191516 | 0 | 197 | 5.0 | 9.0 | 0.00 | 0.00 | 0.00 | 1008.6 | |
| 20260508190049 | 0 | 197 | 3.0 | 8.0 | 0.00 | 0.00 | 0.00 | 1008.5 | |
| 20260508184516 | 0 | 198 | 4.0 | 8.0 | 0.00 | 0.00 | 0.00 | 1008.3 | |
| 20260508183010 | 0 | 198 | 4.0 | 7.0 | 0.00 | 0.00 | 0.00 | 1008.3 | |
| 20260508181610 | 0 | 197 | 3.0 | 7.0 | 0.00 | 0.00 | 0.00 | 1008.2 | |
| 20260508181532 | 0 | 197 | 3.0 | 8.0 | 0.00 | 0.00 | 0.00 | 1008.2 | |
| 20260508180108 | 0 | 198 | 4.0 | 7.0 | 0.00 | 0.00 | 0.00 | 1008.2 | |
| 20260508174553 | 0 | 197 | 5.0 | 8.0 | 0.00 | 0.00 | 0.00 | 1008.1 | |
| 20260508173035 | 0 | 197 | 7.0 | 9.0 | 0.00 | 0.00 | 0.00 | 1008.0 | |
| 20260508171525 | 0 | 198 | 6.0 | 8.0 | 0.00 | 0.00 | 0.00 | 1007.9 | |
| 20260508170046 | 0 | 197 | 5.0 | 8.0 | 0.00 | 0.00 | 0.00 | 1007.8 | |
| 20260508163043 | 0 | 197 | 3.0 | 9.0 | 0.00 | 0.00 | 0.00 | 1007.6 | |
| 20260508161533 | 0 | 197 | 5.0 | 11.0 | 0.00 | 0.00 | 0.00 | 1007.6 | |
| 20260508160005 | 0 | 196 | 6.0 | 11.0 | 0.00 | 0.00 | 0.00 | 1007.5 | |
| 20260508154535 | 0 | 197 | 6.0 | 11.0 | 0.00 | 0.00 | 0.00 | 1007.5 | |
| 20260508153056 | 0 | 197 | 5.0 | 10.0 | 0.00 | 0.00 | 0.00 | 1007.5 | |
| 20260508151518 | 0 | 197 | 4.0 | 9.0 | 0.00 | 0.00 | 0.00 | 1007.3 | |
| 20260508150044 | 0 | 197 | 4.0 | 10.0 | 0.00 | 0.00 | 0.00 | 1007.4 | |
| 20260508144520 | 0 | 198 | 6.0 | 9.0 | 0.00 | 0.00 | 0.00 | 1007.4 | |
| 20260508143022 | 0 | 197 | 6.0 | 13.0 | 0.00 | 0.00 | 0.00 | 1007.5 | |
| 20260508141512 | 0 | 197 | 7.0 | 10.0 | 0.00 | 0.00 | 0.00 | 1007.5 | |
| 20260508140006 | 0 | 196 | 6.0 | 11.0 | 0.00 | 0.00 | 0.00 | 1007.4 | |
| 20260508134514 | 0 | 196 | 5.0 | 10.0 | 0.00 | 0.00 | 0.00 | 1007.3 | |
| 20260508133055 | 0 | 196 | 6.0 | 12.0 | 0.00 | 0.00 | 0.00 | 1007.3 | |
| 20260508131531 | 0 | 197 | 6.0 | 9.0 | 0.00 | 0.00 | 0.00 | 1007.2 | |
| 20260508130027 | 0 | 196 | 8.0 | 13.0 | 0.00 | 0.00 | 0.00 | 1007.2 | |
| 20260508124522 | 0 | 196 | 7.0 | 13.0 | 0.00 | 0.00 | 0.00 | 1007.1 | |
| 20260508123048 | 0 | 200 | 8.0 | 13.0 | 0.00 | 0.00 | 0.00 | 1007.0 | |
| 20260508121515 | 0 | 200 | 6.0 | 12.0 | 0.00 | 0.00 | 0.00 | 1007.0 | |
| 20260508120008 | 0 | 200 | 4.0 | 9.0 | 0.00 | 0.00 | 0.00 | 1007.1 | |
| 20260508114513 | 0 | 204 | 7.0 | 10.0 | 0.00 | 0.00 | 0.00 | 1007.1 | |
| 20260508113052 | 0 | 204 | 6.0 | 9.0 | 0.00 | 0.00 | 0.00 | 1007.0 | |
| 20260508111548 | 0 | 204 | 4.0 | 7.0 | 0.00 | 0.00 | 0.00 | 1007.0 | |
| 20260508110010 | 0 | 202 | 6.0 | 9.0 | 0.00 | 0.00 | 0.00 | 1007.0 | |
| 20260508104505 | 0 | 202 | 5.0 | 9.0 | 0.00 | 0.00 | 0.00 | 1007.0 | |
| 20260508103000 | 0 | 202 | 6.0 | 8.0 | 0.00 | 0.00 | 0.00 | 1007.0 | |
| 20260508101556 | 0 | 202 | 5.0 | 9.0 | 0.00 | 0.00 | 0.00 | 1007.0 | |
| 20260508100051 | 0 | 202 | 3.0 | 6.0 | 0.00 | 0.00 | 0.00 | 1007.0 | |
| 20260508094551 | 0 | 202 | 2.0 | 6.0 | 0.00 | 0.00 | 0.00 | 1007.0 | |
| 20260508093043 | 0 | 202 | 3.0 | 6.0 | 0.00 | 0.00 | 0.00 | 1006.9 | |
| 20260508091539 | 0 | 205 | 3.0 | 5.0 | 0.00 | 0.00 | 0.00 | 1007.0 | |
| 20260508090034 | 0 | 205 | 2.0 | 4.0 | 0.00 | 0.00 | 0.00 | 1007.0 | |
| 20260508084530 | 0 | 205 | 2.0 | 5.0 | 0.00 | 0.00 | 0.00 | 1007.0 | |
| 20260508083025 | 0 | 205 | 3.0 | 4.0 | 0.00 | 0.00 | 0.00 | 1006.9 | |
| 20260508081603 | 0 | 205 | 1.0 | 3.0 | 0.00 | 0.00 | 0.00 | 1006.8 | |
| 20260508080042 | 0 | 205 | 0.0 | 2.0 | 0.00 | 0.00 | 0.00 | 1006.8 | |
| 20260508074510 | 0 | 205 | 1.0 | 3.0 | 0.00 | 0.00 | 0.00 | 1006.6 | |
| 20260508073005 | 0 | 205 | 1.0 | 3.0 | 0.00 | 0.00 | 0.00 | 1006.4 | |
| 20260508071550 | 0 | 205 | 1.0 | 3.0 | 0.00 | 0.00 | 0.00 | 1006.3 | |
| 20260508070033 | 0 | 205 | 1.0 | 2.0 | 0.00 | 0.00 | 0.00 | 1006.3 | |
| 20260508064527 | 0 | 205 | 1.0 | 3.0 | 0.00 | 0.00 | 0.00 | 1006.2 | |
| 20260508063101 | 0 | 205 | 0.0 | 5.0 | 0.00 | 0.00 | 0.00 | 1006.1 | |
| 20260508061556 | 0 | 205 | 4.0 | 5.0 | 0.00 | 0.00 | 0.00 | 1005.9 | |
| 20260508060002 | 0 | 204 | 1.0 | 3.0 | 0.00 | 0.00 | 0.00 | 1005.9 | |
| 20260508054600 | 0 | 204 | 2.0 | 5.0 | 0.00 | 0.00 | 0.00 | 1005.9 | |
| 20260508053057 | 0 | 205 | 1.0 | 2.0 | 0.00 | 0.00 | 0.00 | 1005.7 | |
| 20260508051548 | 0 | 204 | 1.0 | 2.0 | 0.00 | 0.00 | 0.00 | 1005.7 | |
| 20260508050044 | 0 | 205 | 0.0 | 3.0 | 0.00 | 0.00 | 0.00 | 1005.6 | |
| 20260508044600 | 0 | 205 | 2.0 | 3.0 | 0.00 | 0.00 | 0.00 | 1005.5 | |
| 20260508043019 | 0 | 205 | 1.0 | 3.0 | 0.00 | 0.00 | 0.00 | 1005.4 | |
| 20260508041541 | 0 | 205 | 2.0 | 5.0 | 0.00 | 0.00 | 0.00 | 1005.4 | |
| 20260508041506 | 0 | 205 | 2.0 | 5.0 | 0.00 | 0.00 | 0.00 | 1005.4 | |
| 20260508034535 | 0 | 205 | 1.0 | 4.0 | 0.00 | 0.00 | 0.00 | 1005.2 | |
| 20260508030029 | 0 | 204 | 2.0 | 4.0 | 0.00 | 0.00 | 0.00 | 1005.4 | |
| 20260508023031 | 0 | 204 | 2.0 | 3.0 | 0.00 | 0.00 | 0.00 | 1005.6 | |
| 20260508021554 | 0 | 203 | 1.0 | 1.0 | 0.00 | 0.00 | 0.00 | 1005.5 | |
| 20260508020014 | 0 | 203 | 1.0 | 2.0 | 0.00 | 0.00 | 0.00 | 1005.5 | |
| 20260508010043 | 0 | 204 | 1.0 | 2.0 | 0.00 | 0.00 | 0.00 | 1005.4 | |
| 20260508004508 | 0 | 204 | 1.0 | 2.0 | 0.00 | 0.00 | 0.00 | 1005.5 | |
| 20260508003047 | 0 | 203 | 2.0 | 3.0 | 0.00 | 0.00 | 0.00 | 1005.6 | |
| 20260508001546 | 0 | 204 | 2.0 | 4.0 | 0.00 | 0.00 | 0.00 | 1005.5 | |
| 20260508000037 | 0 | 204 | 2.0 | 4.0 | 0.00 | 0.00 | 0.00 | 1005.6 | |
| 20260507234529 | 0 | 203 | 2.0 | 5.0 | 0.00 | 0.00 | 0.00 | 1005.5 | |
| 20260507233044 | 0 | 204 | 3.0 | 4.0 | 0.00 | 0.00 | 0.00 | 1005.6 | |
| 20260507231549 | 0 | 203 | 3.0 | 5.0 | 0.00 | 0.00 | 0.00 | 1005.5 | |
| 20260507230022 | 0 | 204 | 1.0 | 2.0 | 0.00 | 0.00 | 0.00 | 1005.5 | |
| 20260507224521 | 0 | 203 | 0.0 | 2.0 | 0.00 | 0.00 | 0.00 | 1005.4 | |
| 20260507223101 | 0 | 204 | 0.0 | 1.0 | 0.00 | 0.00 | 0.00 | 1005.4 | |
| 20260507221552 | 0 | 203 | 1.0 | 2.0 | 0.00 | 0.00 | 0.00 | 1005.4 | |
| 20260507220047 | 0 | 204 | 1.0 | 2.0 | 0.00 | 0.00 | 0.00 | 1005.3 | |
| 20260507214522 | 0 | 203 | 1.0 | 5.0 | 0.00 | 0.00 | 0.00 | 1005.2 | |
| 20260507213025 | 0 | 204 | 2.0 | 5.0 | 0.00 | 0.00 | 0.00 | 1005.3 |